Starlink 1817

operational
NORAD ID: 46715 Int'l Des: 2020-073 Owner: SPXS Country: US Constellation: starlink
LEOCIRCULARSTARLINK_TYPE

Starlink 1817について

説明を読み込み中...

リアルタイム位置

3D地球を読み込み中...

次回通過

高度履歴

Altitude vs Time

uPlot chart will show altitude changes over time

軌道要素

1 46715U 20073AX 25354.83335647 .01638812 00000-0 59020-1 0 9999
2 46715 53.0524 235.0227 0001410 113.3764 153.2637 15.24807084 5760
Epoch: Dec 20, 2025 • Age: 7 hours

現在のステータス

高度 493.4 km
速度 7.62 km/s
衛星直下点 49.66°N, 145.61°W
打ち上げ日 Oct 18, 2020
運用期間 5.1 years
タイプ internet

技術仕様

分類 Payload
質量 260.00 kg
乾燥質量 248.00 kg
総質量 260.00 kg
長さ 0.20 m
直径 2.80 m
スパン 9.00 m
形状 Box + pan
製造者 SPXS
バスタイプ Starlink
フェーズステータス In Orbit
所有者/国 SPXS/US

大規模コンステレーション

Loading constellations...